Weather History for Macomb, IL

Change the Weather History Date:

Monday, December 31, 2012

  Actual Average (KBRL) Record (KBRL)
Temperature  
Mean Temperature 28 °F 26 °F  
Max Temperature 36 °F 34 °F 62 °F (1965)
Min Temperature 19 °F 18 °F -12 °F (1976)
Degree Days  
Heating Degree Days 38 39  
Month to date heating degree days 1114  
Since 1 July heating degree days 2186  
Cooling Degree Days 0 0  
Month to date cooling degree days 0  
Year to date cooling degree days 1207  
Moisture  
Dew Point 22 °F    
Average Humidity 79    
Maximum Humidity 99    
Minimum Humidity 61    
Precipitation  
Precipitation 0.06 in 0.05 in 0.54 in (2006)
Month to date precipitation 2.09  
Year to date precipitation 38.48  
Sea Level Pressure  
Sea Level Pressure 30.13 in    
Wind  
Wind Speed 13 mph (WNW)    
Max Wind Speed 21 mph    
Max Gust Speed 25 mph    
Visibility 8 miles    
Events Snow    
T = Trace of Precipitation, MM = Missing Value Source: NWS Daily Summary

Daily Weather History Graph

Daily Weather History Graph

Search for Another Location

Airport:

Trip Planner

Search our weather history database for the weather conditions in past years. The results will help you decide how hot, cold, wet, or windy it might be!

Date:

Astronomy

Dec. 31, 2012 Rise Set
Actual Time 7:25 AM CST 4:45 PM CST
Civil Twilight 6:55 AM CST 5:16 PM CST
Nautical Twilight 6:21 AM CST 5:50 PM CST
Astronomical Twilight 5:47 AM CST 6:24 PM CST
Moon 8:17 PM CST (12/31) 9:06 AM CST (12/31)
Length of Visible Light 10h 21m
Length of Day
9h 20m
Waning Gibbous, 90% of the Moon is Illuminated
Dec 31
Waning Gibbous
Jan 4
Last Quarter
Jan 11
New
Jan 18
First Quarter
Jan 26
Full

Hourly Weather History & Observations

Time (CST) Temp. Windchill Dew Point Humidity Pressure Visibility Wind Dir Wind Speed Gust Speed Precip Events Conditions
12:15 AM 35.6 °F 26.2 °F 24.4 °F 64% 30.11 in 10.0 mi SSW 15.0 mph - N/A   Scattered Clouds
12:35 AM 36.3 °F 26.8 °F 23.9 °F 61% 30.11 in 10.0 mi SW 16.1 mph - N/A   Scattered Clouds
12:55 AM 36.3 °F 26.8 °F 24.3 °F 62% 30.10 in 10.0 mi SW 16.1 mph - N/A   Scattered Clouds
1:15 AM 36.3 °F 26.8 °F 24.1 °F 61% 30.11 in 10.0 mi SW 16.1 mph 24.2 mph N/A   Mostly Cloudy
1:35 AM 36.1 °F 26.2 °F 24.3 °F 62% 30.12 in 10.0 mi SSW 17.3 mph 21.9 mph N/A   Mostly Cloudy
1:55 AM 36.0 °F 26.3 °F 24.6 °F 63% 30.11 in 10.0 mi SW 16.1 mph - N/A   Mostly Cloudy
2:15 AM 36.1 °F 26.2 °F 24.4 °F 63% 30.11 in 10.0 mi SW 17.3 mph 23.0 mph N/A   Mostly Cloudy
2:35 AM 36.0 °F 26.3 °F 24.6 °F 63% 30.13 in 10.0 mi SW 16.1 mph 24.2 mph N/A   Scattered Clouds
2:55 AM 36.0 °F 25.0 °F 24.6 °F 63% 30.12 in 10.0 mi SW 20.7 mph 25.3 mph N/A   Mostly Cloudy
3:15 AM 35.6 °F 26.6 °F 25.0 °F 65% 30.11 in 10.0 mi SW 13.8 mph 24.2 mph N/A   Mostly Cloudy
3:35 AM 35.8 °F 26.1 °F 24.6 °F 64% 30.12 in 10.0 mi SW 16.1 mph 24.2 mph N/A   Overcast
3:55 AM 35.6 °F 25.9 °F 24.6 °F 64% 30.11 in 10.0 mi WSW 16.1 mph - N/A   Overcast
4:15 AM 35.6 °F 26.2 °F 24.4 °F 64% 30.11 in 10.0 mi WSW 15.0 mph 20.7 mph N/A   Overcast
4:35 AM 35.6 °F 26.6 °F 24.6 °F 64% 30.10 in 10.0 mi WSW 13.8 mph - N/A   Overcast
4:55 AM 35.6 °F 27.1 °F 24.8 °F 65% 30.09 in 10.0 mi WSW 12.7 mph - N/A   Overcast
5:15 AM 35.1 °F 27.9 °F 25.2 °F 67% 30.09 in 10.0 mi WSW 9.2 mph - N/A   Overcast
5:35 AM 35.6 °F 28.0 °F 24.8 °F 65% 30.10 in 10.0 mi WSW 10.4 mph - N/A   Overcast
5:55 AM 34.7 °F 26.4 °F 25.5 °F 69% 30.10 in 10.0 mi SW 11.5 mph 16.1 mph N/A   Overcast
6:15 AM 34.9 °F 26.6 °F 25.3 °F 68% 30.11 in 10.0 mi SW 11.5 mph - N/A   Overcast
6:35 AM 34.2 °F 25.7 °F 25.7 °F 71% 30.12 in 10.0 mi SW 11.5 mph - N/A   Overcast
6:55 AM 34.3 °F 25.9 °F 25.5 °F 70% 30.12 in 10.0 mi WSW 11.5 mph - N/A   Overcast
7:15 AM 34.7 °F 26.9 °F 25.5 °F 69% 30.12 in 10.0 mi WSW 10.4 mph - N/A   Overcast
7:35 AM 34.3 °F 25.5 °F 25.9 °F 71% 30.12 in 10.0 mi WSW 12.7 mph - N/A   Overcast
7:55 AM 33.8 °F 24.8 °F 26.6 °F 75% 30.11 in 10.0 mi WSW 12.7 mph - N/A   Overcast
8:15 AM 34.2 °F 25.2 °F 26.2 °F 73% 30.11 in 10.0 mi WSW 12.7 mph - N/A   Overcast
8:35 AM 33.8 °F 25.8 °F 26.8 °F 75% 30.11 in 10.0 mi WSW 10.4 mph - N/A   Overcast
8:55 AM 33.8 °F 25.3 °F 26.6 °F 75% 30.12 in 10.0 mi West 11.5 mph - N/A   Overcast
9:15 AM 32.2 °F 22.3 °F 29.7 °F 90% 30.14 in 0.8 mi West 13.8 mph - N/A Snow Light Snow
9:35 AM 31.8 °F 23.3 °F 31.1 °F 97% 30.15 in 0.5 mi West 10.4 mph - N/A Snow Snow
9:55 AM 30.9 °F 21.7 °F 30.2 °F 97% 30.14 in 1.0 mi NW 11.5 mph - 0.01 in Snow Light Snow
10:15 AM 30.2 °F 23.4 °F 30.0 °F 99% 30.15 in 0.8 mi NW 6.9 mph - 0.02 in Snow Light Snow
10:35 AM 30.0 °F 21.1 °F 29.7 °F 99% 30.15 in 1.2 mi WNW 10.4 mph - 0.03 in Snow Light Snow
10:55 AM 30.0 °F 21.1 °F 29.3 °F 97% 30.14 in 1.8 mi WNW 10.4 mph - 0.03 in Snow Light Snow
11:15 AM 29.5 °F 20.4 °F 28.9 °F 98% 30.14 in 2.5 mi WNW 10.4 mph - N/A Snow Light Snow
11:35 AM 28.8 °F 19.0 °F 25.9 °F 89% 30.14 in 2.5 mi NNW 11.5 mph - N/A Snow Light Snow
11:55 AM 27.3 °F 18.4 °F 25.5 °F 93% 30.14 in 1.0 mi NW 9.2 mph - N/A Snow Light Snow
12:15 PM 26.4 °F 16.0 °F 24.6 °F 93% 30.14 in 1.5 mi NW 11.5 mph - N/A Snow Light Snow
12:35 PM 25.7 °F 15.7 °F 24.3 °F 94% 30.13 in 1.2 mi NW 10.4 mph - 0.01 in Snow Light Snow
12:55 PM 25.0 °F 16.3 °F 23.9 °F 96% 30.12 in 1.0 mi NW 8.1 mph - 0.01 in Snow Light Snow
1:35 PM 24.8 °F 15.3 °F 23.4 °F 94% 30.12 in 1.5 mi NW 9.2 mph - N/A Snow Light Snow
1:55 PM 24.8 °F 14.6 °F 23.5 °F 95% 30.12 in 1.2 mi NW 10.4 mph - 0.01 in Snow Light Snow
2:15 PM 24.8 °F 15.3 °F 23.2 °F 94% 30.11 in 2.5 mi NW 9.2 mph - N/A Snow Light Snow
2:35 PM 24.3 °F 12.7 °F 22.5 °F 93% 30.12 in 3.0 mi NW 12.7 mph - N/A Snow Light Snow
2:55 PM 23.9 °F 12.9 °F 20.7 °F 87% 30.12 in 10.0 mi NW 11.5 mph - N/A   Overcast
3:15 PM 23.7 °F 13.3 °F 19.9 °F 85% 30.12 in 10.0 mi NNW 10.4 mph - N/A   Overcast
3:35 PM 23.0 °F 11.1 °F 19.0 °F 85% 30.12 in 10.0 mi NNW 12.7 mph - N/A   Overcast
3:55 PM 23.0 °F 13.1 °F 18.3 °F 82% 30.13 in 10.0 mi NW 9.2 mph - N/A   Overcast
4:15 PM 22.8 °F 12.9 °F 18.5 °F 83% 30.12 in 10.0 mi NW 9.2 mph - N/A   Overcast
4:35 PM 22.6 °F 15.3 °F 18.3 °F 83% 30.12 in 10.0 mi NW 5.8 mph - N/A   Overcast
4:55 PM 22.6 °F 14.3 °F 18.7 °F 85% 30.13 in 10.0 mi NW 6.9 mph - N/A   Overcast
5:15 PM 23.0 °F 14.7 °F 19.4 °F 86% 30.13 in 10.0 mi NW 6.9 mph - N/A   Overcast
5:35 PM 22.1 °F 14.7 °F 18.1 °F 85% 30.13 in 10.0 mi NW 5.8 mph - N/A   Overcast
5:55 PM 22.1 °F 11.3 °F 18.1 °F 85% 30.13 in 10.0 mi NNW 10.4 mph - N/A   Overcast
6:15 PM 21.9 °F 11.0 °F 17.4 °F 83% 30.13 in 10.0 mi NW 10.4 mph - N/A   Overcast
6:35 PM 21.7 °F 10.8 °F 16.7 °F 81% 30.14 in 10.0 mi NW 10.4 mph - N/A   Overcast
6:55 PM 21.2 °F 9.5 °F 16.7 °F 83% 30.14 in 10.0 mi NW 11.5 mph - N/A   Overcast
7:15 PM 21.0 °F 9.3 °F 16.5 °F 83% 30.14 in 10.0 mi NNW 11.5 mph - N/A   Overcast
7:35 PM 20.8 °F 9.7 °F 15.8 °F 81% 30.16 in 10.0 mi NNW 10.4 mph - N/A   Overcast
7:55 PM 21.2 °F 8.9 °F 15.8 °F 80% 30.14 in 10.0 mi NNW 12.7 mph - N/A   Overcast
8:15 PM 20.3 °F 8.3 °F 15.6 °F 82% 30.16 in 10.0 mi NNW 11.5 mph - N/A   Overcast
8:35 PM 19.9 °F 8.6 °F 15.8 °F 84% 30.16 in 10.0 mi NNW 10.4 mph - N/A   Overcast
8:55 PM 19.9 °F 7.9 °F 15.6 °F 83% 30.17 in 10.0 mi NNW 11.5 mph - N/A   Overcast
9:15 PM 19.9 °F 8.6 °F 15.6 °F 83% 30.17 in 3.0 mi NNW 10.4 mph - N/A Snow Light Snow
9:35 PM 19.9 °F 9.3 °F 15.6 °F 83% 30.17 in 3.0 mi NNW 9.2 mph - N/A Snow Light Snow
9:55 PM 19.9 °F 9.3 °F 15.6 °F 83% 30.17 in 10.0 mi North 9.2 mph - N/A   Overcast
10:15 PM 19.4 °F 6.0 °F 13.8 °F 79% 30.17 in 10.0 mi North 13.8 mph - N/A   Overcast
10:35 PM 19.4 °F 7.9 °F 13.6 °F 78% 30.19 in 10.0 mi North 10.4 mph - N/A   Overcast
10:55 PM 19.4 °F 7.2 °F 13.3 °F 77% 30.19 in 10.0 mi North 11.5 mph - N/A   Overcast
11:15 PM 19.4 °F 7.9 °F 13.8 °F 79% 30.18 in 10.0 mi North 10.4 mph - N/A   Overcast
11:35 PM 19.2 °F 8.4 °F 13.6 °F 79% 30.18 in 10.0 mi North 9.2 mph - N/A   Overcast
11:55 PM 19.2 °F 7.0 °F 13.6 °F 79% 30.19 in 10.0 mi North 11.5 mph - N/A   Overcast